Weather History for Weslaco, TX

Change the Weather History Date:

Wednesday, December 5, 2012

  Actual Average (KMFE) Record (KMFE)
Temperature  
Mean Temperature 72 °F 64 °F  
Max Temperature 79 °F 74 °F 94 °F (1953)
Min Temperature 63 °F 54 °F 33 °F (2009)
Degree Days  
Heating Degree Days 0 4  
Month to date heating degree days 20  
Since 1 July heating degree days 80  
Cooling Degree Days 6 3  
Month to date cooling degree days 17  
Year to date cooling degree days 4386  
Growing Degree Days 22 (Base 50)    
Moisture  
Dew Point 54 °F    
Average Humidity 56    
Maximum Humidity 88    
Minimum Humidity 31    
Precipitation  
Precipitation 0.04 in 0.04 in 0.35 in (1979)
Month to date precipitation 0.16  
Year to date precipitation 21.17  
Sea Level Pressure  
Sea Level Pressure 30.11 in    
Wind  
Wind Speed 8 mph (North)    
Max Wind Speed 16 mph    
Max Gust Speed 26 mph    
Visibility 10 miles    
Events Thunderstorm    
T = Trace of Precipitation, MM = Missing Value Source: NWS Daily Summary

Daily Weather History Graph

Daily Weather History Graph

Search for Another Location

Airport:

Trip Planner

Search our weather history database for the weather conditions in past years. The results will help you decide how hot, cold, wet, or windy it might be!

Date:

Astronomy

Dec. 05, 2012 Rise Set
Actual Time 7:05 AM CST 5:39 PM CST
Civil Twilight 6:40 AM CST 6:05 PM CST
Nautical Twilight 6:11 AM CST 6:33 PM CST
Astronomical Twilight 5:43 AM CST 7:01 PM CST
Moon No Moon Rise 11:55 AM CST (12/5)
Length of Visible Light 11h 24m
Length of Day
10h 34m
Waning Gibbous, 59% of the Moon is Illuminated
Dec 5
Waning Gibbous
Dec 6
Last Quarter
Dec 13
New
Dec 19
First Quarter
Dec 28
Full

Hourly Weather History & Observations

Time (CST) Temp. Dew Point Humidity Pressure Visibility Wind Dir Wind Speed Gust Speed Precip Events Conditions
12:15 AM 71.6 °F 66.2 °F 83% 30.11 in 10.0 mi WSW 3.5 mph - N/A   Unknown
12:35 AM 69.8 °F 66.2 °F 88% 30.11 in 10.0 mi NW 10.4 mph - N/A Thunderstorm Unknown
12:55 AM 69.8 °F 64.4 °F 83% 30.11 in 7.0 mi North 16.1 mph 26.5 mph 0.04 in Thunderstorm Thunderstorm
8:35 AM 65.3 °F 58.3 °F 78% 30.20 in 10.0 mi North 12.7 mph - N/A   Unknown
8:55 AM 65.7 °F 57.0 °F 74% 30.21 in 10.0 mi NNW 10.4 mph - N/A   Unknown
9:15 AM 66.7 °F 56.7 °F 70% 30.21 in 10.0 mi NNW 10.4 mph - N/A   Unknown
9:35 AM 67.1 °F 56.1 °F 68% 30.21 in 10.0 mi North 10.4 mph - N/A   Unknown
9:55 AM 68.4 °F 56.1 °F 65% 30.21 in 10.0 mi North 6.9 mph - N/A   Unknown
10:15 AM 70.0 °F 56.1 °F 61% 30.21 in 10.0 mi North 8.1 mph - N/A   Unknown
10:35 AM 70.3 °F 55.0 °F 58% 30.21 in 10.0 mi NNW 9.2 mph - N/A   Unknown
10:55 AM 71.2 °F 54.3 °F 55% 30.21 in 10.0 mi NNW 5.8 mph - N/A   Unknown
11:15 AM 72.3 °F 53.6 °F 52% 30.20 in 10.0 mi NW 9.2 mph - N/A   Unknown
11:35 AM 74.1 °F 54.3 °F 50% 30.19 in 10.0 mi NNW 8.1 mph - N/A   Unknown
11:55 AM 74.8 °F 54.7 °F 49% 30.18 in 10.0 mi NNW 9.2 mph - N/A   Unknown
12:15 PM 75.6 °F 54.7 °F 48% 30.16 in 10.0 mi NNW 6.9 mph - N/A   Unknown
12:35 PM 76.1 °F 54.7 °F 47% 30.15 in 10.0 mi NNW 6.9 mph - N/A   Unknown
12:55 PM 77.4 °F 53.8 °F 44% 30.13 in 10.0 mi NW 9.2 mph - N/A   Unknown
1:15 PM 77.7 °F 51.8 °F 40% 30.12 in 10.0 mi North 10.4 mph - N/A   Unknown
1:35 PM 78.8 °F 50.7 °F 37% 30.10 in 10.0 mi North 9.2 mph - N/A   Unknown
1:55 PM 79.2 °F 49.6 °F 35% 30.09 in 10.0 mi NNW 8.1 mph - N/A   Unknown
2:15 PM 79.3 °F 48.4 °F 34% 30.07 in 10.0 mi NNW 8.1 mph - N/A   Unknown
2:35 PM 79.0 °F 47.5 °F 33% 30.06 in 10.0 mi NNW 9.2 mph - N/A   Unknown
2:55 PM 79.3 °F 47.1 °F 32% 30.06 in 10.0 mi North 10.4 mph 17.3 mph N/A   Unknown
3:15 PM 79.7 °F 47.1 °F 32% 30.06 in 10.0 mi North 6.9 mph - N/A   Unknown
3:35 PM 79.2 °F 46.6 °F 32% 30.05 in 10.0 mi North 6.9 mph - N/A   Unknown
3:55 PM 78.8 °F 46.0 °F 31% 30.05 in 10.0 mi NNW 5.8 mph - N/A   Unknown
4:15 PM 79.0 °F 46.6 °F 32% 30.05 in 10.0 mi North 4.6 mph - N/A   Unknown
4:35 PM 77.9 °F 48.4 °F 35% 30.04 in 10.0 mi NE 5.8 mph - N/A   Unknown
4:55 PM 76.5 °F 50.2 °F 40% 30.04 in 10.0 mi NE 5.8 mph - N/A   Unknown
5:15 PM 75.2 °F 51.1 °F 43% 30.04 in 10.0 mi NE 5.8 mph - N/A   Unknown
5:35 PM 72.9 °F 52.7 °F 49% 30.04 in 10.0 mi NE 4.6 mph - N/A   Unknown
5:55 PM 69.8 °F 53.8 °F 57% 30.04 in 10.0 mi NE 3.5 mph - N/A   Unknown
6:15 PM 69.6 °F 54.7 °F 59% 30.04 in 10.0 mi NE 3.5 mph - N/A   Unknown
6:35 PM 68.9 °F 55.0 °F 61% 30.05 in 10.0 mi Calm Calm - N/A   Unknown
6:55 PM 67.5 °F 54.0 °F 62% 30.05 in 10.0 mi NE 3.5 mph - N/A   Unknown
7:15 PM 66.0 °F 54.5 °F 66% 30.05 in 10.0 mi NE 3.5 mph - N/A   Unknown
7:35 PM 66.6 °F 54.9 °F 66% 30.06 in 10.0 mi East 6.9 mph - N/A   Unknown
7:55 PM 66.4 °F 57.2 °F 72% 30.06 in 10.0 mi East 3.5 mph - N/A   Unknown
8:15 PM 65.7 °F 57.6 °F 75% 30.07 in 10.0 mi East 4.6 mph - N/A   Unknown
8:35 PM 64.9 °F 57.7 °F 77% 30.07 in 10.0 mi East 4.6 mph - N/A   Unknown
8:55 PM 64.4 °F 57.7 °F 79% 30.07 in 10.0 mi ESE 4.6 mph - N/A   Unknown
9:15 PM 63.5 °F 57.6 °F 81% 30.07 in 10.0 mi SE 3.5 mph - N/A   Unknown